Погода в Нижнем Мулебки

Россия / Республика Дагестан     42°19′41″N   47°34′03″E
темп.,
°C
ветер,
м/с
пор.,
м/с
влажн.,
%
обл.,
%
осадки,
мм/ч
давл.,
гПа
погр.,
м
25 июня, сб
сб2500:00+12ю118895 0.1 101010
03:00+10зюз228093 0.1 101111
06:00+14ююз017040 0.0 101052
09:00+18всв217069 0.0 1010496
12:00+19в327448 0.1 1009834
15:00+18в3381100 0.4 1009667
18:00+16всв2194100 0.3 1010274
21:00+14зсз1193100 0.6 101131
26 июня, вс
вс2600:00+13юз3393100 0.3 101134
03:00+13зюз1184100 0.7 101111
06:00+14вюв128256 0.0 101082
09:00+16всв2184100 0.1 1009266
12:00+17в338099 0.1 1009678
15:00+18всв2278100 0.5 1008741
18:00+17ссв1288100 0.8 1008152
21:00+13зсз3495100 3.8 101296
27 июня, пн
пн2700:00+13з3392100 0.4 101151
03:00+12зюз33880 0.4 101131
06:00+15з22800 0.0 101159
09:00+20ссз21650 0.0 1010563
12:00+22ссв226115 0.0 10101273
15:00+18ссз568285 0.4 1012731
18:00+17сз348624 0.5 1012503
21:00+14з439198 0.6 101449
28 июня, вт
вт2800:00+14з4486100 0.0 101259
03:00+13з338598 0.0 101136
06:00+15з34850 0.0 1011120
09:00+19сз33650 0.0 1009620
12:00+21с326024 0.0 10091180
15:00+19ссз55644 0.2 1011975
18:00+16ссз34783 0.4 1012426
21:00+12з33911 0.7 101433
29 июня, ср
ср2900:00+12з3392100 0.8 101554
03:00+12зсз228789 0.9 101417
06:00+14з117824 0.0 101469
09:00+18св21577 0.0 1014998
12:00+18в226089 0.3 10141264
15:00+18всв216197 0.4 10141068
18:00+16в227870 0.0 1014257
21:00+12ююв229385 0.1 101673